ONEWEB-0313 (49099 NORAD) Tracking and Keplerian Element Data

This shows tracking and keplerian element data for the satellite.

Feedback or suggestion? Click here.




ElementValue
Catalog49099
NameONEWEB-0313
Epoch Orbit351
Epoch Day300.58334491
Epoch Year2021
RAAN344.3775
Inclination87.5535
Eccentricity0.0021107
Argument of Perigee63.5664
Mean Anonmoly100.2007
Mean Motion14.33155234
Decay Rate-0.01383783
L11 49099U 21075AA 21300.58334491 -.01383783 00000-0 -53730+0 0 9991
L22 49099 87.5535 344.3775 0021107 63.5664 100.2007 14.33155234 3510

Live tracking and technical data element details for ONEWEB-0313 (NORAD 49099). ONEWEB-0313 can be tracked NOW for your location showing map with azimuth and elevation plus other details from your city location.

Track the satellite on the map from your city or location and see movement details for azimuth, elevation, latitude, longitude, range, height, and movement on the map or in text.







IsCatalogInMostPopularTable: catalog: 49099, numindb: 16
Update: records affected: 1



GetName: 49099 ONEWEB-0313

Hit Count: updated at: Thu, 28 Oct 2021 10:59:03 GMT